Regional Weather Roundup
Issued by NWS Columbia, SC

Home | Current Version | Previous Version | Text Only | Print | Product List | Glossary On
Versions: 1 2 3 4 5 6 7 8 9 10 11 12 13 14 15 16 17 18 19 20 21 22 23 24 25 26 27
000
ASUS42 KCAE 171410
RWRCAE
REGIONAL WEATHER ROUNDUP
NATIONAL WEATHER SERVICE COLUMBIA SC
900 AM EST TUE JAN 17 2017

NOTE: "FAIR" INDICATES FEW OR NO CLOUDS BELOW 12,000 FEET WITH NO
SIGNIFICANT WEATHER AND/OR OBSTRUCTIONS TO VISIBILITY.

NOT ALL STATIONS ARE QUALITY CONTROLLED BY THE NATIONAL
WEATHER SERVICE. USE DATA WITH CAUTION...ESPECIALLY
DEWPOINT OBSERVATIONS.

SCZ001>056-GAZ040-063>065-077-171500-
...UPSTATE SOUTH CAROLINA...

CITY           SKY/WX    TMP DP  RH WIND       PRES   REMARKS
ANDERSON       CLOUDY    54  53  97 S5        30.24S FOG
LIBERTY        FOG       53  52  99 CALM      30.22F VSB 1/2
SPARTANBURG    CLOUDY    52  50  93 CALM      30.23S FOG
CLEMSON        FOG       54  52  93 VRB6      30.23F VSB 1/4
GREENVILLE     FOG       54  52  93 S7        30.23F VSB 1
GREENWOOD      FOG       53  52  96 CALM      30.26S VSB 1/2
GREER          FOG       52  51  97 S8        30.22S VSB 1/4
ROCK HILL      CLOUDY    51  51 100 S5        30.25S FOG
CHESTER        CLOUDY    50  50 100 CALM      30.26S FOG
LAURENS        CLOUDY    52  52 100 CALM      30.25S FOG


...CENTRAL SOUTH CAROLINA...

CITY           SKY/WX    TMP DP  RH WIND       PRES   REMARKS
COLUMBIA APT   CLOUDY    56  54  93 CALM      30.26S FOG
COLUMBIA OWENS CLOUDY    55  53  93 S3        30.28R FOG
MCENTIRE ANGB  FOG       54  54 100 SE5       30.27R VSB 3/4
ORANGEBURG     FOG       58  58 100 S3        30.27S VSB 3/4
SUMTER SHAW    CLOUDY    55  54  99 S3        30.25S FOG
NEWBERRY       CLOUDY    54  54 100 CALM      30.29R FOG
AIKEN          CLOUDY    55  55 100 SW7       30.30S FOG
BARNWELL       CLOUDY    61  61 100 SW5       30.28R FOG
MANNING        FOG       54  52  94 CALM      30.28S VSB<1/4
CAMDEN         FOG       52  52 100 CALM      30.28R VSB 1/4
LANCASTER      CLOUDY    50  50 100 S3        30.27S FOG
WINNSBORO      FOG       52  52 100 S3        30.26S VSB 1/4


...EASTERN AND COASTAL SOUTH CAROLINA...

CITY           SKY/WX    TMP DP  RH WIND       PRES   REMARKS
MYRTLE BEACH   PTSUNNY   54  50  87 N7        30.29R FOG
N MYRTLE BCH   CLOUDY    53  52  96 CALM      30.27R FOG
CONWAY         FOG       50  50 100 CALM      30.28R VSB 3/4
MARION         FOG       50  50 100 CALM      30.28S VSB<1/4
HARTSVILLE     CLOUDY    50  50 100 CALM      30.27S VSB 1/2
FLORENCE       FOG       53  53 100 CALM      30.28R VSB 1/4
DARLINGTON     FOG       52  51  97 CALM      30.28S VSB 1/2
CHARLESTON APT FOG       55  54  96 N3        30.27S VSB 3/4
MOUNT PLEASANT PTSUNNY   55  55 100 CALM      30.27S
WALTERBORO     FOG       61 N/A N/A CALM      30.28S VSB 1/4
BEAUFORT       FOG       58  58 100 N3        30.27S VSB 1/4


...EASTERN GEORGIA...

CITY           SKY/WX    TMP DP  RH WIND       PRES   REMARKS
AUGUSTA BUSH F CLOUDY    62  57  83 SW9       30.27R
AUGUSTA DANIEL CLOUDY    60  56  86 SW6       30.27R
THOMSON        CLOUDY    61  60  96 SW5       30.30S
WASHINGTON     CLOUDY    61  61 100 S3        30.25S
CLAXTON        FOG      N/A N/A N/A CALM      30.27S VSB 1/2
SYLVANIA       FOG      N/A N/A N/A CALM      30.28R VSB 1/4
STATESBORO     FOG       59  32  36 SW3       30.28R VSB 1/4
SAVANNAH       FOG       58  56  93 CALM      30.27S VSB 1/4


...SOUTHERN NORTH CAROLINA...

CITY           SKY/WX    TMP DP  RH WIND       PRES   REMARKS
CHARLOTTE      FOG       51  50  96 S9        30.24F VSB 1
MONROE         CLOUDY    50  49  96 VRB3      30.24F FOG
WADESBORO      CLOUDY    51  50  95 SE3       30.27S FOG
ROCKINGHAM     FOG       49  49 100 CALM      30.29R VSB 1/2
RUTHERFORDTON  FOG       50  50 100 S7        30.24R VSB<1/4
ASHEVILLE      PTSUNNY   55  50  83 S16G23    30.21R

$$




USA.gov is the U.S. government's official web portal to all federal, state and local government web resources and services.